FENGYUN 3A

Satellite information

Favourite Embed

Satellite Type and Status

PAYLOADIN ORBIT

Key statistics

Satellite FENGYUN 3A at a glance.

Uptime

6410

Days in orbit

Revolutions

≈ 14.2

Per day

Orbit

SSO

Sun Synchronous Orbit

Inclination

98.7

Latest

Satellite identification and parameters

Extended collection of information and parameters for FENGYUN 3A.

Object identification

Identified? True

Debris? False

Object name: FENGYUN 3A

International designator: 2008-026A

Object number (NORAD): 32958

Object ID (CCSDS): 32958

Country: PEOPLES REPUBLIC OF CHINA (PRC)

Current information (Y/N): Y

RCS size: LARGE

Orbital parameters

Period: 101.443 minutes

Inclination: 98.6698 deg

SMA: 7205.13 km

Apoapsis: 832.672 km

Periapsis: 821.318 km

RAAN: 287.1795 deg

Eccentricy: 0.0007879

Argument of periapsis: 307.4942 deg

Mean anomaly: 52.5517 deg

Mean motion: 14.19515052 rev/day

Mean motion (dot): 0.00000186 rev/day2

B* drag term: 0.00010870967 1/REarth

Two-line elements (TLE)

Creation date: Dec. 14, 2025, 3:07 a.m.

Reference frame: TEME

Reference center: EARTH

Epoch: Dec. 13, 2025, 4:08 p.m. UTC

TLE line 0: 0 FENGYUN 3A

TLE line 1: 1 32958U 08026A 25347.67235410 .00000186 00000-0 10871-3 0 9997

TLE line 2: 2 32958 98.6698 287.1795 0007879 307.4942 52.5517 14.19515052909088

Live tracking on map

Real-time ground track for satellite FENGYUN 3A.

In-orbit conjunctions

There are no conjunctions computed for FENGYUN 3A, at the moment. Check back to stay up to date, as we update our databases every day.

Go to all conjunctions

Associated space launch

Chinese 2nd generation polar orbiting meteorological satellite

FENGYUN 3A was lifted into orbit during the mission ‘Long March 4C | Feng Yun 3A’, on board a Long March 4C space rocket.

The launch took place on May 27, 2008, 3:02 a.m. from Launch Complex 7.

For more information about the launch, click the button.

Launch to space Long March 4C | Feng Yun 3A
Long March 4C | Feng Yun 3A

Agency: N/A

Status: Launch Successful

Launch date: May 27, 2008, 3:02 a.m. UTC

Rocket: Long March 4C

Launch pad: Launch Complex 7

Location: Taiyuan Satellite Launch Center, People's Republic of China

...

Latest news about this satellite

There are no fresh news available about this satellite. Check back as we update our databases every day.


Newsletter sign-up

Weekly statistics, charts and insights to help you stay on top of the space industry.